Location: *
(57.0397°N, 3.2314°W)
Time: 17:27:23
(UTC+00:00)

Daily predictions for brighter satellites

Satellite Brightness Start Highest point End
(mag) Time Altitude Azimuth Time Altitude Azimuth Time Altitude Azimuth
NOSS 3-4 (A) 4.1 17:08:58 10° WNW 17:15:11 51° N 17:22:06 10° E
NOSS 3-4 (C) 4.1 17:09:04 10° WNW 17:15:17 51° N 17:22:11 10° E
Cosmos 2219 3.5 17:12:48 10° NNW 17:18:26 52° NE 17:24:05 10° ESE
NOSS 2-2 (D) 4.2 17:13:49 10° NW 17:18:38 80° NNE 17:25:18 10° ESE
SMAP 3.1 17:16:47 10° SSE 17:21:28 90° NNW 17:26:10 10° NNW
Timation 2 Rocket 4.1 17:16:31 10° NW 17:23:01 75° NE 17:29:46 10° SE
Cosmos 1818 3.9 17:18:09 10° SSW 17:23:26 53° SE 17:28:45 10° NE
Cosmos 2082 4.4 17:23:03 10° NNW 17:28:22 37° NE 17:33:41 10° ESE
SL-16 R/B 4.5 17:24:24 10° N 17:29:14 25° NW 17:34:06 10° W
COSMO-SKYMED 1 3.8 17:26:07 10° NE 17:29:31 22° E 17:32:54 10° SE
Cosmos 1356 Rocket 3.5 17:26:42 10° S 17:30:57 62° E 17:35:13 10° NNE
CZ-4 R/B 2.2 17:28:02 10° ESE 17:31:22 28° ENE 17:34:41 10° N
NOSS 2-1 (C) 3.1 17:29:13 10° SW 17:32:32 65° SE 17:36:23 10° ENE
Cosmos 2278 Rocket 3.8 17:29:12 10° WNW 17:33:53 26° NNW 17:38:36 10° NNE
H-2A R/B 4.2 17:30:03 10° S 17:34:17 42° W 17:38:36 10° NNW
H-2A R/B 1.9 17:31:19 10° NNE 17:35:34 82° ESE 17:39:42 10° SSW
Cosmos 1943 Rocket 2.8 17:30:44 10° SW 17:36:12 57° NW 17:41:39 10° NNE
ATLAS 2AS CENTAUR R/B 3.3 17:29:37 10° WNW 17:37:20 54° N 17:44:29 10° E
NOSS 2-1 (D) 3.0 17:34:27 10° SW 17:37:47 71° SE 17:41:39 10° ENE
SeaSat 1 3.0 17:33:42 10° ESE 17:38:16 39° NE 17:42:51 10° NNW
Cosmos 1420 Rocket 4.0 17:33:07 10° SSW 17:38:24 84° ESE 17:43:39 10° NNE
Cosmos 1400 Rocket 4.3 17:36:10 10° SE 17:38:52 17° E 17:41:34 10° NE
USA 215 3.3 17:33:41 10° E 17:40:16 90° NE 17:46:52 10° W
Cosmos 968 Rocket 3.9 17:35:27 10° NNW 17:40:30 43° NE 17:45:27 10° ESE
CSL-04 DEB 4.3 17:37:04 10° NNE 17:41:04 76° ESE 17:44:59 10° SSW
Okean O Rocket 2.2 17:37:17 10° S 17:41:37 62° WSW 17:45:58 10° NNW
Cosmos 1825 Rocket 3.5 17:37:31 10° N 17:42:01 76° ENE 17:46:28 10° SSE
COSMOS 2487 4.0 17:39:46 10° NW 17:43:03 40° WSW 17:46:18 10° S
USA 305 3.4 17:40:33 10° W 17:44:47 58° S 17:48:59 10° ESE
ATLAS 5 CENTAUR R/B 1.8 17:41:19 10° WSW 17:45:38 79° NNW 17:50:41 10° NE
Cosmos 2279 Rocket 4.4 17:39:40 10° SSW 17:45:55 72° WNW 17:52:11 10° N
CZ-4B R/B 4.0 17:40:40 10° S 17:46:10 58° WSW 17:51:38 10° NNW
CZ-2C R/B 3.7 17:40:54 10° SE 17:46:18 43° ENE 17:51:33 10° N
Cosmos 1689 Rocket 3.5 17:44:15 10° NE 17:46:25 19° E 17:48:34 10° SE
Cosmos 1726 3.3 17:46:08 10° SW 17:49:44 45° WNW 17:53:22 10° N
Meteor 2-21 Rocket 4.4 17:44:41 10° NNW 17:50:55 77° ENE 17:57:05 10° SSE
USA 306 3.4 17:46:50 10° W 17:51:03 57° S 17:55:01 11° ESE
Cosmos 1486 Rocket 4.2 17:46:21 10° NNW 17:51:36 51° NE 17:56:48 10° SE
YAOGAN 1 3.0 17:47:51 10° SE 17:51:53 39° ENE 17:55:57 10° N
Meteor 1-16 Rocket 4.2 17:47:10 10° SSW 17:52:47 87° ESE 17:58:16 10° NNE
Cosmos 1844 Rocket 4.4 17:48:49 10° NW 17:52:57 20° N 17:57:06 10° NE
Cosmos 304 Rocket 3.8 17:49:51 10° SSW 17:54:39 85° WNW 17:59:29 10° NNE
Cosmos 1908 3.2 17:51:27 10° S 17:55:18 86° E 17:59:13 10° NNE
Cosmos 2227 Rocket 2.2 17:49:44 10° NW 17:55:24 66° NE 18:01:02 10° SE
ARGOS 3.9 17:52:38 10° ESE 17:57:24 33° ENE 18:02:12 10° N
COSMOS 2455 4.0 17:53:22 10° WNW 17:58:50 34° N 18:04:18 10° NE
SL-4 R/B 2.9 17:55:48 10° SW 17:59:00 32° S 18:01:41 14° ESE
Cosmos 1892 3.4 17:55:33 10° N 17:59:07 34° ENE 18:02:41 10° SE
Cosmos 1758 Rocket 4.1 17:55:24 10° NNW 17:59:49 63° W 18:04:08 10° S
Cosmos 1503 Rocket 4.5 17:55:59 10° NNW 18:00:55 40° NE 18:05:45 10° ESE
Cosmos 1953 3.2 17:58:14 10° SSW 18:02:07 51° WNW 18:06:01 10° N
Cosmos 1346 Rocket 3.6 17:58:35 10° N 18:02:11 31° ENE 18:05:46 10° SE
Cosmos 1726 Rocket 3.8 18:00:00 10° SSE 18:04:08 45° E 18:08:20 10° NNE
Cosmos 2263 Rocket 3.3 17:59:24 10° NNW 18:04:21 29° NNE 18:07:57 16° ENE
Cosmos 1656 Rocket 3.9 17:59:32 10° SW 18:05:10 77° NW 18:10:53 10° NE
MOS 1 Rocket 4.5 18:03:09 10° NE 18:06:33 20° E 18:10:04 10° SE
BREEZE-M R/B 4.3 18:03:10 10° SW 18:06:34 36° SSE 18:11:38 14° ESE
FALCON 9 DEB 3.9 18:06:01 10° WSW 18:09:17 41° S 18:11:23 19° ESE
Cosmos 1354 Rocket 4.4 18:06:11 10° NNW 18:11:12 42° NE 18:15:25 14° ESE
Okean-O 2.6 18:07:00 10° SSE 18:11:24 68° ENE 18:15:50 10° NNW
CSL-04 Rocket 3.9 18:06:33 10° SE 18:11:52 49° ENE 18:17:10 10° N
CZ-2D R/B 3.1 18:08:08 10° SSE 18:11:56 75° ENE 18:15:46 10° NNW
Aureole 3 Rocket 3.7 18:10:08 10° SSE 18:14:03 40° E 18:19:23 10° NNE
Cosmos 1745 Rocket 4.2 18:10:15 10° N 18:16:22 51° ENE 18:22:30 10° SE
SL-08 R/B 4.4 18:10:12 10° N 18:16:24 64° ENE 18:22:29 10° SSE
Cosmos 1300 2.7 18:13:15 10° S 18:16:59 55° E 18:20:44 10° NNE
SKYMED 2 3.7 18:13:42 10° NNE 18:17:58 52° E 18:22:13 10° S
Cosmos 2228 2.9 18:14:34 10° S 18:18:49 75° E 18:23:07 10° NNE
Cosmos 1606 Rocket 3.5 18:14:33 10° S 18:18:55 72° E 18:23:20 10° NNE
SJ-11-01 4.5 18:14:28 10° SE 18:18:57 48° ENE 18:23:29 10° N
CZ-4C R/B 3.1 18:13:18 10° WNW 18:19:16 50° N 18:24:34 18° ENE
GEOS 3 Rocket 3.9 18:14:03 10° SE 18:19:25 75° SW 18:24:51 10° NW
ADEOS Rocket 3.7 18:13:49 10° NNE 18:19:49 62° WNW 18:26:28 10° SW
Cosmos 1697 Rocket 4.4 18:17:33 10° SE 18:18:40 13° ESE 18:18:40 13° ESE
Cosmos 44 4.0 18:18:26 10° S 18:22:25 30° ESE 18:24:23 22° E
ERBS 2.2 18:19:27 10° WSW 18:22:48 82° S 18:24:22 29° E
Lacrosse 5 1.8 18:18:30 10° WSW 18:23:36 85° SSE 18:26:52 22° E
Cosmos 1408 3.0 18:20:10 10° N 18:23:37 38° ENE 18:25:48 19° SE
Cosmos 1452 Rocket 3.8 18:18:42 10° SW 18:23:58 73° WNW 18:29:17 10° NNE
Cosmos 1825 3.0 18:22:25 10° N 18:25:50 30° ENE 18:26:45 27° E
CZ-4B R/B 1.7 18:24:51 10° N 18:28:09 64° WNW 18:31:20 10° SSW
NOSS 2-1 (E) 3.5 18:27:32 10° WSW 18:30:58 63° NNW 18:33:37 20° NE
H-2A R/B 2.2 18:26:06 10° SE 18:31:26 62° ENE 18:36:51 10° NNW
USA 307 3.5 18:28:53 10° W 18:33:03 49° SSW 18:35:30 22° SE
Cosmos 2297 Rocket 2.5 18:30:01 10° NW 18:35:40 69° WSW 18:41:18 10° SSE
USA 308 3.5 18:33:41 10° W 18:37:49 48° SSW 18:40:06 24° SE
Cosmos 2151 3.9 18:34:36 10° N 18:38:16 27° ENE 18:38:21 27° ENE
In-Cosmos 22 Rocket 4.1 18:33:31 10° NNW 18:38:52 85° WSW 18:44:17 10° S
ERS-2 3.0 18:35:43 10° N 18:39:16 50° WNW 18:42:48 10° SW
Cosmos 2369 Rocket 3.4 18:33:57 10° WSW 18:39:17 40° NW 18:44:42 10° NNE
Cosmos 1340 2.9 18:36:14 10° NNW 18:40:02 71° WSW 18:43:47 10° S
Helios 1A Rocket 3.6 18:39:35 10° S 18:43:39 57° WSW 18:47:44 10° NNW
Ariane Rocket 3.6 18:41:47 27° ESE 18:43:45 37° ENE 18:48:26 10° N
Cosmos 1709 Rocket 4.2 18:40:12 10° N 18:46:24 50° ENE 18:51:44 14° SE
Cosmos 1939 Rocket 4.2 18:42:38 10° S 18:46:24 41° W 18:50:09 10° NNW
SAR-Lupe-4 3.9 18:43:31 10° NNE 18:47:07 68° WNW 18:50:41 10° SSW
Cosmos 2058 Rocket 3.0 18:43:21 10° S 18:47:50 72° E 18:52:22 10° NNE
Meteor 2-3 Rocket 4.5 18:43:40 10° N 18:48:47 32° ENE 18:50:08 29° E
Cosmos 292 Rocket 3.7 18:44:01 10° SSW 18:48:47 69° ESE 18:53:38 10° NNE
CSL-04 Debris 4.1 18:44:17 10° SSE 18:49:44 86° ENE 18:55:15 10° NNW
PSLV R/B 3.8 18:45:37 10° NNE 18:49:51 81° ESE 18:54:01 10° SSW
Cosmos 2058 2.8 18:53:56 10° NNW 18:58:04 88° E 19:01:47 12° SSE
Cosmos 2219 4.2 18:57:09 10° NW 19:02:38 46° WSW 19:08:06 10° S
Cosmos 1331 Rocket 4.0 19:00:03 10° SSW 19:05:13 78° WNW 19:10:25 10° NNE
MetOp-A 4.4 19:03:39 36° ESE 19:05:20 48° ENE 19:10:29 10° N
COSMO-SKYMED 1 3.0 19:01:46 10° NNE 19:06:05 65° WNW 19:10:24 10° SSW
CZ-4 R/B 2.5 19:02:34 10° S 19:06:17 43° W 19:10:00 10° NNW
NOSS 3-4 (A) 3.7 19:00:12 10° NW 19:06:52 78° NNE 19:10:30 33° ESE
NOSS 3-4 (C) 3.7 19:00:19 10° NW 19:06:59 78° NNE 19:10:36 33° ESE
SJ-6B 3.5 19:07:29 40° NE 19:07:29 40° NE 19:10:57 10° N
Cosmos 1818 4.1 19:01:43 10° WSW 19:07:05 56° NNW 19:10:31 22° NE
Cosmos 2315 Rocket 4.4 19:05:45 33° ESE 19:07:09 37° E 19:12:46 10° NNE
Timation 1 Rocket 4.3 19:03:05 10° NW 19:09:09 84° NE 19:12:20 30° SE
S3M 3.9 19:05:45 10° S 19:11:47 66° E 19:17:55 10° NNE
SJ 16-02 3.0 19:08:46 10° N 19:11:38 21° NNE 19:11:38 21° NNE
Cosmos 2082 3.9 19:07:14 10° NW 19:12:58 74° WSW 19:16:56 21° SSE
Resurs 01 Rocket 3.2 19:14:51 21° NNE 19:14:51 21° NNE 19:17:09 10° N
Cosmos 1400 Rocket 3.0 19:10:45 10° SSW 19:14:52 73° WNW 19:18:58 10° NNE
SeaSat 1 2.8 19:11:59 18° SSE 19:15:39 62° WSW 19:20:35 10° NW
Aureole 3 3.4 19:14:10 10° SSW 19:17:11 51° WNW 19:18:08 34° NNW
Cosmos 1689 Rocket 3.7 19:15:01 10° N 19:17:43 35° WNW 19:20:23 10° SW
Cosmos 2278 Rocket 4.0 19:15:46 10° NW 19:19:55 20° N 19:22:22 16° NE
Cosmos 1943 Rocket 4.0 19:16:38 10° WNW 19:21:06 24° NNW 19:25:24 11° NNE
Cosmos 1076 Rocket 3.5 19:16:56 10° NNW 19:21:11 78° W 19:23:14 30° S
Okean 3 Rocket 4.5 19:17:41 10° N 19:20:42 34° NNE 19:20:42 34° NNE
Cosmos 968 Rocket 4.4 19:17:23 10° NW 19:22:24 47° WSW 19:27:21 10° S
OBJECT-B 3.5 19:25:13 12° N 19:25:13 12° N 19:25:36 10° N
Cosmos 1777 Rocket 4.0 19:17:45 10° NNW 19:22:55 59° NE 19:23:41 53° E
NOSS 2-1 (C) 4.3 19:19:53 10° W 19:23:16 39° NNW 19:24:06 35° NNE
USA 215 3.4 19:20:27 33° SE 19:23:33 68° SSW 19:30:06 10° WNW
Cosmos 1417 Rocket 4.5 19:17:27 10° S 19:23:44 90° WSW 19:30:09 10° NNE
USA 305 4.0 19:20:29 10° W 19:24:25 35° SSW 19:25:08 33° S
CZ-2C R/B 4.2 19:20:32 10° S 19:26:08 49° W 19:31:36 10° NNW
HJ-1C 4.4 19:25:04 32° SSW 19:26:14 46° W 19:29:31 10° NNW
GENESIS II 4.2 19:22:30 10° SW 19:26:27 83° S 19:26:27 83° S
YAOGAN 1 4.1 19:24:04 10° SSW 19:28:03 35° W 19:32:04 10° NNW
NOSS 2-1 (D) 4.3 19:25:11 10° W 19:28:33 38° NNW 19:29:11 36° NNE
ATLAS 2AS CENTAUR R/B 2.8 19:21:22 10° NW 19:29:10 81° NNE 19:31:56 42° ESE
CRYOSAT 2 4.4 19:25:34 10° N 19:30:28 81° W 19:35:20 10° S
USA 306 4.0 19:26:47 10° W 19:30:40 33° SSW 19:31:10 32° S
ATLAS 5 CENTAUR R/B 2.7 19:26:26 10° W 19:30:51 42° N 19:32:24 33° NE
Cosmos 1766 Rocket 4.5 19:27:43 10° N 19:30:46 36° NNE 19:30:46 36° NNE
TRAILBLAZER 4.5 19:29:58 10° NW 19:34:35 78° NE 19:34:42 77° NE
Cosmos 1302 Rocket 4.0 19:29:18 10° SSW 19:34:35 82° WNW 19:39:08 15° NNE
SPOT 3 Rocket 3.9 19:35:12 46° NE 19:35:12 46° NE 19:39:50 10° N
Meteor 2-10 Rocket 3.4 19:30:15 10° SSW 19:35:33 86° ESE 19:40:42 10° NNE
SL-08 RB Rocket 3.7 19:35:03 50° S 19:36:11 78° WSW 19:40:43 10° NNW
CZ-2C R/B 3.8 19:31:40 10° NNE 19:34:29 28° NE 19:34:29 28° NE
ARGOS 3.5 19:32:02 10° S 19:37:24 63° WSW 19:42:50 10° NNW
SL-4 R/B 3.2 19:34:46 10° WSW 19:37:16 29° SW 19:37:16 29° SW
EO 1 Delta rocket 3.8 19:32:59 10° NNE 19:38:27 68° E 19:38:34 68° ESE
Cosmos 1844 Rocket 3.7 19:33:35 10° NNW 19:38:38 31° NNE 19:39:02 31° NE
Cosmos 1346 Rocket 4.2 19:34:55 10° NNW 19:38:38 37° W 19:41:41 14° SSW
Cosmos 2227 Rocket 3.7 19:34:08 10° NW 19:39:10 34° WSW 19:44:12 10° S
Meteor 2-1 Rocket 4.0 19:34:31 10° S 19:40:03 84° ESE 19:45:38 10° NNE
Cosmos 1553 Rocket 4.3 19:36:20 10° SSW 19:42:39 66° WNW 19:48:54 10° N
MOS 1 Rocket 3.3 19:40:46 10° NNE 19:45:19 76° WNW 19:50:05 10° SSW
COSMOS 2455 3.8 19:40:42 10° NW 19:46:16 36° NNE 19:47:28 33° NE
Cosmos 1656 3.5 19:41:45 10° SSW 19:47:21 82° SE 19:48:51 51° NE
Cosmos 2263 Rocket 2.0 19:43:26 10° NW 19:49:10 76° NE 19:49:39 71° E
IRS-1A Rocket 4.3 19:53:10 46° S 19:54:52 78° WSW 20:00:26 10° NNW
Cosmos 1825 3.7 19:57:54 10° NNW 20:01:23 34° W 20:01:35 34° W
Cosmos 44 3.5 19:58:39 10° WSW 20:02:50 67° W 20:02:50 67° W
Cosmos 1697 Rocket 4.0 19:58:06 10° SSW 20:00:30 26° SSW 20:00:30 26° SSW
MOS 1 4.4 20:04:10 53° S 20:05:30 73° WSW 20:11:13 10° NNW
Lacrosse 5 2.0 20:01:32 10° W 20:06:03 70° W 20:06:03 70° W
CZ-4C R/B 2.7 20:02:02 10° NW 20:08:38 77° NNE 20:09:44 65° E
H-2A R/B 3.9 20:06:28 10° SSW 20:11:14 31° W 20:16:04 10° NNW
Cosmos 2151 4.2 20:11:43 10° NNW 20:14:57 41° WNW 20:14:57 41° WNW
Geosat 4.3 20:20:31 64° NW 20:20:31 64° NW 20:25:23 10° SW
Cosmos 2184 Rocket 3.9 20:15:49 10° NNW 20:21:53 80° NNE 20:21:53 80° NNE
Ariane Rocket 3.7 20:21:59 46° SW 20:22:39 49° W 20:27:37 10° NNW
Cosmos 2369 Rocket 4.2 20:20:32 10° WNW 20:24:54 22° NNW 20:27:26 16° NNE
Cosmos 2227 4.5 20:23:49 10° NW 20:29:02 63° W 20:29:02 63° W
Meteor 2-3 Rocket 4.0 20:26:47 10° NNW 20:32:25 63° W 20:32:26 63° W
Terra 4.2 20:41:51 15° N 20:41:51 15° N 20:42:55 10° N
Cosmos 2074 Rocket 4.1 20:38:24 10° NNW 20:44:10 70° WNW 20:44:10 70° WNW
Resurs 01 Rocket 3.8 20:52:25 23° NNW 20:52:25 23° NNW 20:54:09 10° NNW
SJ 16-02 3.5 20:46:59 10° NNW 20:48:37 22° NNW 20:48:37 22° NNW
Cosmos 2315 Rocket 4.5 20:50:27 39° SW 20:52:32 56° WNW 20:58:40 10° N
NOSS 3-4 (A) 4.4 20:51:11 10° WNW 20:57:38 45° SW 20:57:57 44° SW
NOSS 3-4 (C) 4.4 20:51:18 10° WNW 20:57:44 45° SW 20:58:02 45° SW
Cosmos 2278 Rocket 3.8 21:00:45 10° NNW 21:04:11 27° N 21:04:11 27° N
Cosmos 1943 Rocket 4.2 21:02:49 10° NW 21:06:46 19° N 21:06:54 19° N
USA 215 4.4 21:07:48 32° SW 21:07:48 32° SW 21:13:09 10° WNW
ATLAS 5 CENTAUR R/B 3.7 21:11:31 10° WNW 21:13:55 28° NW 21:13:55 28° NW
CZ-2C R/B 4.0 21:12:08 10° N 21:15:58 36° NNW 21:15:58 36° NNW
ATLAS 2AS CENTAUR R/B 3.6 21:12:45 10° NW 21:19:21 42° WSW 21:19:21 42° WSW
Cosmos 1844 Rocket 4.1 21:17:33 10° NW 21:20:41 34° NNW 21:20:41 34° NNW
Cosmos 2263 Rocket 4.0 21:27:52 10° NW 21:31:21 26° W 21:31:21 26° W
COSMOS 2455 4.1 21:27:03 10° NW 21:30:36 36° NW 21:30:36 36° NW
CZ-4C R/B 3.9 21:50:33 10° WNW 21:54:54 37° W 21:54:54 37° W
Cosmos 2369 Rocket 4.4 22:06:27 10° NW 22:09:12 20° N 22:09:12 20° N
